�N����,����,����,����,����,�C��,���x,�~����,�S�V����,�ő�u�ԕ���,,,
,,,,,,,,,����,����,����,�N��
yyyy/mm/dd,hh:mm:ss,(16),16����,m/s,��,%,mm,KW/�u,(16),16����,m/s,Time
2015/4/1,1:00:00,3,���k��,4.2,4.9,79.4,0,0,3,���k��,5.9,56
2015/4/1,2:00:00,2,�k��,2,4.7,86.5,0,0,3,���k��,6.3,2
2015/4/1,3:00:00,1,�k�k��,3.4,3.4,88.8,0,0,1,�k�k��,7.2,27
2015/4/1,4:00:00,13,���k��,1,2.3,95.7,0,0,1,�k�k��,3.9,1
2015/4/1,5:00:00,11,���쐼,1.3,1.8,99.3,0,0,6,�쓌,2.4,12
2015/4/1,6:00:00,7,��쓌,1.7,2.1,99.5,0,0.01,7,��쓌,2.5,53
2015/4/1,7:00:00,15,�É�,0.2,2.8,98.8,0,0.09,1,�k�k��,2.6,55
2015/4/1,8:00:00,10,�쐼,1.3,4.6,90.7,0,0.34,10,�쐼,2.5,44
2015/4/1,9:00:00,7,��쓌,2.3,4.9,83.2,0,0.63,7,��쓌,3.5,54
2015/4/1,10:00:00,9,��쐼,2.3,5.7,75.9,0,0.52,9,��쐼,3.9,55
2015/4/1,11:00:00,7,��쓌,3.1,5.2,75.5,0,0.8,6,�쓌,5.9,56
2015/4/1,12:00:00,7,��쓌,3.2,4.6,78.8,0,0.75,5,���쓌,6.2,15
2015/4/1,13:00:00,7,��쓌,3.1,4,83.8,0,0.44,7,��쓌,5.6,56
2015/4/1,14:00:00,7,��쓌,1.3,4.3,83.4,0,0.26,7,��쓌,4.3,0
2015/4/1,15:00:00,8,��,1.9,4,85.6,0,0.2,9,��쐼,3.7,53
2015/4/1,16:00:00,8,��,2,3.3,85,0,0.18,8,��,3.9,40
2015/4/1,17:00:00,8,��,1.4,3.2,88.4,0,0.12,8,��,3.7,2
2015/4/1,18:00:00,7,��쓌,0.9,2.4,91.1,0,0.04,7,��쓌,2.9,26
2015/4/1,19:00:00,8,��,0.6,1.9,93.6,0,0,8,��,1.9,36
2015/4/1,20:00:00,6,�쓌,1.6,1.6,94.4,0,0,5,���쓌,2.5,59
2015/4/1,21:00:00,6,�쓌,2,2.1,93.5,0,0,7,��쓌,3.8,54
2015/4/1,22:00:00,7,��쓌,1.2,2,93.7,0,0,7,��쓌,3.9,0
2015/4/1,23:00:00,7,��쓌,1.5,2,94.2,0,0,6,�쓌,3.5,45
2015/4/1,0:00:00,6,�쓌,1.7,1.7,95.7,0,0,7,��쓌,3.7,13
2015/4/2,1:00:00,5,���쓌,1.6,1.6,96,0,0,5,���쓌,2.5,53
2015/4/2,2:00:00,5,���쓌,1.5,1.4,95.5,0,0,6,�쓌,2.5,57
2015/4/2,3:00:00,8,��,0.7,0.9,96.1,0,0,11,���쐼,2.5,14
2015/4/2,4:00:00,14,�k��,0.6,0.9,99.2,0,0,12,��,2.1,49
2015/4/2,5:00:00,13,���k��,1.8,0.4,99.8,0,0,11,���쐼,2.8,52
2015/4/2,6:00:00,16,�k,0.9,-0.2,100,0,0.03,13,���k��,2.6,27
2015/4/2,7:00:00,12,��,0.8,-0.4,100,0,0.13,11,���쐼,2.5,43
2015/4/2,8:00:00,7,��쓌,0.7,0.9,100,0,0.34,3,���k��,2.1,20
2015/4/2,9:00:00,3,���k��,0.8,3.8,84.9,0,0.66,2,�k��,1.5,4
2015/4/2,10:00:00,6,�쓌,2.1,4,79.7,0,0.81,6,�쓌,4.1,45
2015/4/2,11:00:00,4,��,1.5,5.1,78.6,0,0.91,5,���쓌,3.8,7
2015/4/2,12:00:00,5,���쓌,2.2,4.8,73.2,0,0.94,5,���쓌,2.7,59
2015/4/2,13:00:00,4,��,0.9,6.8,66.8,0,0.91,5,���쓌,2.7,5
2015/4/2,14:00:00,3,���k��,0.6,8.2,57.1,0,0.8,2,�k��,2.3,27
2015/4/2,15:00:00,6,�쓌,1.8,7.7,61.6,0,0.66,6,�쓌,2.7,21
2015/4/2,16:00:00,8,��,1.6,8,57.6,0,0.49,7,��쓌,3.1,50
2015/4/2,17:00:00,10,�쐼,0.8,7.4,61.1,0,0.24,10,�쐼,3,21
2015/4/2,18:00:00,9,��쐼,0.6,4.8,69.1,0,0.05,8,��,3.4,21
2015/4/2,19:00:00,2,�k��,0.6,3.1,75.6,0,0,2,�k��,3.5,48
2015/4/2,20:00:00,10,�쐼,1.6,3.9,74.7,0,0,7,��쓌,2.8,52
2015/4/2,21:00:00,13,���k��,1.4,3.2,79,0,0,12,��,3,30
2015/4/2,22:00:00,12,��,2.3,3.4,76,0,0,12,��,4.1,43
2015/4/2,23:00:00,11,���쐼,1.3,3,79.2,0,0,11,���쐼,4.6,32
2015/4/2,0:00:00,10,�쐼,1.4,3.7,73.8,0,0,2,�k��,3.6,7
2015/4/3,1:00:00,3,���k��,1.8,3.2,75.9,0,0,3,���k��,4.1,8
2015/4/3,2:00:00,1,�k�k��,3.5,3.3,93.3,0,0,1,�k�k��,4.5,56
2015/4/3,3:00:00,1,�k�k��,1.4,2.8,93.5,0,0,1,�k�k��,5.2,3
2015/4/3,4:00:00,13,���k��,1.6,2.4,91.1,0,0,11,���쐼,2.9,35
2015/4/3,5:00:00,5,���쓌,0.7,1.5,93.6,0,0,12,��,2.4,28
2015/4/3,6:00:00,5,���쓌,2.5,2.7,97,0,0.01,5,���쓌,3.4,53
2015/4/3,7:00:00,6,�쓌,1.4,3.6,96.3,0,0.02,5,���쓌,5.3,27
2015/4/3,8:00:00,7,��쓌,2.6,4.4,96.3,0.5,0.03,7,��쓌,5.6,58
2015/4/3,9:00:00,8,��,3.4,4.8,96.8,2,0.03,8,��,9.1,56
2015/4/3,10:00:00,8,��,3.5,4.8,96.4,2,0.04,7,��쓌,12,26
2015/4/3,11:00:00,8,��,5,4.4,97.6,1.5,0.06,8,��,10,24
2015/4/3,12:00:00,7,��쓌,3.2,4.1,98.8,2.5,0.1,8,��,10,28
2015/4/3,13:00:00,7,��쓌,3.7,5,99.2,2,0.14,8,��,8.6,27
2015/4/3,14:00:00,8,��,4.6,5.9,98.8,2,0.2,8,��,8.1,46
2015/4/3,15:00:00,8,��,2.1,6.9,97.2,1,0.15,8,��,7.2,3
2015/4/3,16:00:00,13,���k��,1.9,6.2,98.4,0.5,0.13,5,���쓌,3.5,59
2015/4/3,17:00:00,12,��,2.2,4.4,98.9,0,0.08,12,��,4.8,41
2015/4/3,18:00:00,7,��쓌,2.6,5,99.2,0,0.04,7,��쓌,5.1,59
2015/4/3,19:00:00,9,��쐼,2.7,9.9,79.4,0,0,10,�쐼,11.2,42
2015/4/3,20:00:00,11,���쐼,3.7,8.4,75.7,0,0,10,�쐼,10.3,36
2015/4/3,21:00:00,11,���쐼,4.3,8.8,74.1,0,0,12,��,11.5,18
2015/4/3,22:00:00,1,�k�k��,2,5.8,81,0,0,12,��,5.4,0
2015/4/3,23:00:00,15,�k�k��,5.6,6.3,70.9,0,0,16,�k,11,51
2015/4/3,0:00:00,15,�k�k��,6.9,5.7,63.7,0.5,0,14,�k��,15.9,53
2015/4/4,1:00:00,15,�k�k��,6.5,5.7,61,0,0,14,�k��,14.6,35
2015/4/4,2:00:00,14,�k��,7,5.8,58.6,0,0,11,���쐼,17.6,37
2015/4/4,3:00:00,14,�k��,7.1,5.6,59,0,0,13,���k��,13.6,58
2015/4/4,4:00:00,11,���쐼,4.8,4.8,65.9,0,0,14,�k��,13,7
2015/4/4,5:00:00,11,���쐼,1.9,3.1,76.2,0,0,12,��,8.5,6
2015/4/4,6:00:00,14,�k��,5,5.3,63.7,0,0.05,15,�k�k��,8.7,57
2015/4/4,7:00:00,12,��,3.1,5.8,62.3,0,0.23,15,�k�k��,9.4,6
2015/4/4,8:00:00,13,���k��,2.2,7.6,56.7,0,0.46,14,�k��,8.2,31
2015/4/4,9:00:00,13,���k��,5.1,8.3,57,0,0.65,14,�k��,10,48
2015/4/4,10:00:00,14,�k��,3.6,9.1,42.2,0,0.79,14,�k��,8.1,4
2015/4/4,11:00:00,15,�k�k��,3.1,10.3,40.1,0,0.89,15,�k�k��,7.9,33
2015/4/4,12:00:00,14,�k��,4.1,11.3,33.9,0,0.93,1,�k�k��,7.5,40
2015/4/4,13:00:00,8,��,5.2,7.3,56.5,0,0.89,10,�쐼,8.4,47
2015/4/4,14:00:00,8,��,4.6,7.1,68.5,0,0.79,8,��,8.4,47
2015/4/4,15:00:00,8,��,5.2,7.1,62.2,0,0.64,8,��,9.8,51
2015/4/4,16:00:00,8,��,4.5,6.1,65.5,0,0.44,8,��,10.1,13
2015/4/4,17:00:00,9,��쐼,4.1,5.9,63,0,0.21,8,��,8.7,8
2015/4/4,18:00:00,8,��,4.9,5.6,64.3,0,0.05,8,��,9.6,51
2015/4/4,19:00:00,8,��,4.7,4.3,74.9,0,0,8,��,10.3,9
2015/4/4,20:00:00,7,��쓌,2.7,3.3,85,0,0,7,��쓌,8.9,3
2015/4/4,21:00:00,5,���쓌,1.1,3.2,90,0,0,2,�k��,3.7,30
2015/4/4,22:00:00,7,��쓌,1.8,2.9,93.2,0,0,7,��쓌,5.2,31
2015/4/4,23:00:00,8,��,2.1,2.5,95.4,0,0,8,��,5,20
2015/4/4,0:00:00,9,��쐼,1.6,2.6,93.8,0,0,8,��,4.8,19
2015/4/5,1:00:00,11,�É�,0.2,1.2,94.1,0,0,10,�쐼,2.7,56
2015/4/5,2:00:00,12,��,2,-0.1,98.1,0,0,4,��,4.9,7
2015/4/5,3:00:00,11,���쐼,0.4,-0.4,97.7,0,0,13,���k��,2.5,18
2015/4/5,4:00:00,4,��,0.3,-1.8,99,0,0,1,�k�k��,2.1,34
2015/4/5,5:00:00,16,�k,1.1,-1.6,99.9,0,0,3,���k��,2.5,5
2015/4/5,6:00:00,2,�k��,1.5,0.6,99.6,0,0.03,2,�k��,2.5,57
2015/4/5,7:00:00,15,�k�k��,1,1.3,94,0,0.13,16,�k,2.8,56
2015/4/5,8:00:00,3,���k��,2.1,2.4,91,0,0.18,3,���k��,4.6,59
2015/4/5,9:00:00,4,��,3.2,2.3,93.2,0,0.14,3,���k��,5,32
2015/4/5,10:00:00,3,���k��,3.7,2.7,89.1,0,0.2,3,���k��,6.4,28
2015/4/5,11:00:00,4,��,4.3,3.3,84.5,0,0.3,3,���k��,6.8,33
2015/4/5,12:00:00,3,���k��,4.7,3.3,81,0,0.47,2,�k��,7.7,41
2015/4/5,13:00:00,3,���k��,4.3,2.7,83.8,0,0.29,3,���k��,7.1,4
2015/4/5,14:00:00,3,���k��,3.6,2.8,85,0,0.22,3,���k��,7.4,3
2015/4/5,15:00:00,3,���k��,3.4,2.3,89,0,0.12,3,���k��,7,24
2015/4/5,16:00:00,2,�k��,2.9,1.1,96.1,0,0.05,3,���k��,6,12
2015/4/5,17:00:00,16,�k,1.8,1.1,99.1,2,0.02,2,�k��,3.9,1
2015/4/5,18:00:00,14,�k��,2.2,0.9,99.4,1.5,0.01,13,���k��,3.3,56
2015/4/5,19:00:00,14,�k��,1.9,0.8,99.5,1,0,14,�k��,3.9,1
2015/4/5,20:00:00,14,�k��,1.8,0.8,99.7,1,0,13,���k��,4.2,29
2015/4/5,21:00:00,14,�k��,2.5,1,100,1,0,14,�k��,4.3,49
2015/4/5,22:00:00,15,�k�k��,1.4,1.1,99.8,1.5,0,15,�k�k��,5.2,10
2015/4/5,23:00:00,14,�k��,2.5,1.2,99.8,2.5,0,13,���k��,5.4,27
2015/4/5,0:00:00,14,�k��,2.6,1.3,98.9,1,0,14,�k��,5.2,8
2015/4/6,1:00:00,14,�k��,2.9,1.4,99.1,1,0,14,�k��,5.5,32
2015/4/6,2:00:00,14,�k��,2.3,1.3,99.5,1,0,14,�k��,6.3,28
2015/4/6,3:00:00,14,�k��,3.2,1.3,99.9,0,0,13,���k��,5.9,41
2015/4/6,4:00:00,13,���k��,3.2,1.2,99.8,0,0,15,�k�k��,6.5,17
2015/4/6,5:00:00,14,�k��,3.7,1.6,99.4,0,0,12,��,7.4,14
2015/4/6,6:00:00,13,���k��,3,1.9,98.5,0,0.02,14,�k��,5.3,2
2015/4/6,7:00:00,13,���k��,4.1,2.3,96.2,0,0.07,13,���k��,6.6,39
2015/4/6,8:00:00,13,���k��,2.7,4.1,91.9,0,0.25,13,���k��,5.9,4
2015/4/6,9:00:00,13,���k��,2,5.6,84.3,0,0.46,13,���k��,3.2,1
2015/4/6,10:00:00,4,��,0.8,7.2,83.3,0,0.5,14,�k��,2.5,16
2015/4/6,11:00:00,7,��쓌,2.5,7.5,77.4,0,0.68,7,��쓌,4.3,50
2015/4/6,12:00:00,6,�쓌,2.7,7.6,79.5,0,0.95,6,�쓌,5.5,14
2015/4/6,13:00:00,9,��쐼,2.3,9.1,75.6,0,0.89,7,��쓌,4.2,26
2015/4/6,14:00:00,10,�쐼,2.4,10.8,68,0,0.74,10,�쐼,4,31
2015/4/6,15:00:00,7,��쓌,3.9,8.1,75.8,0,0.57,6,�쓌,5.8,58
2015/4/6,16:00:00,6,�쓌,1,7.9,81.8,0,0.26,8,��,5,7
2015/4/6,17:00:00,5,���쓌,0.7,7.4,84.7,0,0.19,8,��,3.2,27
2015/4/6,18:00:00,16,�k,1.4,5.8,88,0,0.05,1,�k�k��,3.1,56
2015/4/6,19:00:00,12,��,1,4.6,94.3,0,0,1,�k�k��,2.2,7
2015/4/6,20:00:00,12,��,1.5,3.8,94.6,0,0,12,��,2.8,45
2015/4/6,21:00:00,13,���k��,0.5,2,97.9,0,0,12,��,2.5,13
2015/4/6,22:00:00,13,���k��,0.8,1.4,99.3,0,0,9,��쐼,2.2,15
2015/4/6,23:00:00,12,��,1.6,2.5,98.9,0,0,13,���k��,2.6,40
2015/4/6,0:00:00,11,���쐼,1.1,3.5,94.7,0,0,9,��쐼,2.1,32
2015/4/7,1:00:00,7,��쓌,0.4,3.8,82.5,0,0,13,���k��,2.6,34
2015/4/7,2:00:00,14,�k��,1.5,4.9,66.4,0,0,15,�k�k��,2.9,56
2015/4/7,3:00:00,14,�k��,2.6,4.6,61.9,0,0,15,�k�k��,6.2,57
2015/4/7,4:00:00,14,�k��,3.3,4.1,57.6,0,0,15,�k�k��,8,31
2015/4/7,5:00:00,15,�k�k��,2.4,3.8,56.3,0,0,14,�k��,6.4,4
2015/4/7,6:00:00,14,�k��,3.3,3.5,55.4,0,0.02,16,�k,6.5,4
2015/4/7,7:00:00,14,�k��,3.2,3.5,57.5,0,0.07,14,�k��,6.9,42
2015/4/7,8:00:00,14,�k��,4.1,4,51.5,0,0.31,14,�k��,7.9,1
2015/4/7,9:00:00,14,�k��,3.2,5.2,50.9,0,0.45,8,��,7.3,13
2015/4/7,10:00:00,14,�k��,3.9,6.1,45.6,0,0.81,16,�k,7.4,20
2015/4/7,11:00:00,14,�k��,4,6.7,42.2,0,0.92,14,�k��,7.4,52
2015/4/7,12:00:00,13,���k��,3.6,6.8,38.2,0,0.95,13,���k��,7.2,27
2015/4/7,13:00:00,9,��쐼,4.1,7.1,49.2,0,0.93,1,�k�k��,7.1,14
2015/4/7,14:00:00,14,�k��,3.8,7,44.2,0,0.83,10,�쐼,8.3,28
2015/4/7,15:00:00,15,�k�k��,3.8,6.8,40.8,0,0.73,1,�k�k��,8.3,41
2015/4/7,16:00:00,14,�k��,4.6,5.7,46.5,0,0.46,14,�k��,8.6,16
2015/4/7,17:00:00,15,�k�k��,3.4,4.7,45.3,0,0.15,15,�k�k��,9.3,43
2015/4/7,18:00:00,15,�k�k��,4.3,3.5,47.4,0,0.05,1,�k�k��,8.2,1
2015/4/7,19:00:00,15,�k�k��,3.3,2.6,50.6,0,0,15,�k�k��,8,16
2015/4/7,20:00:00,15,�k�k��,4.4,1.8,53.3,0,0,3,���k��,8.5,10
2015/4/7,21:00:00,14,�k��,4.1,1.1,58.1,0,0,15,�k�k��,8.6,26
2015/4/7,22:00:00,14,�k��,4.8,0.8,57.6,0,0,8,��,9,6
2015/4/7,23:00:00,14,�k��,4.3,-0.2,62.3,0,0,15,�k�k��,8.4,10
2015/4/7,0:00:00,14,�k��,3.6,-0.4,59.1,0,0,12,��,7.5,27
2015/4/8,1:00:00,14,�k��,2.7,-1,64.3,0,0,15,�k�k��,6.1,28
2015/4/8,2:00:00,14,�k��,3.4,-1.2,61.5,0,0,12,��,5.7,47
2015/4/8,3:00:00,13,���k��,2.6,-2,68.9,0,0,16,�k,5.9,5
2015/4/8,4:00:00,14,�k��,1.9,-2.9,71.2,0,0,14,�k��,4.3,15
2015/4/8,5:00:00,12,��,2.5,-3.8,82.1,0,0.01,2,�k��,3.6,1
2015/4/8,6:00:00,12,��,2.5,-2.4,71.1,0,0.09,1,�k�k��,4.2,35
2015/4/8,7:00:00,13,���k��,2.5,-0.3,60.9,0,0.28,13,���k��,4.6,17
2015/4/8,8:00:00,14,�k��,1.9,1.2,51.2,0,0.4,6,�쓌,4.1,5
2015/4/8,9:00:00,12,��,1.5,2.9,38,0,0.68,14,�k��,4.4,50
2015/4/8,10:00:00,16,�k,2.9,3.5,37.3,0,0.76,1,�k�k��,6.2,50
2015/4/8,11:00:00,9,��쐼,3.6,3.6,40.5,0,0.86,10,�쐼,6.9,56
2015/4/8,12:00:00,8,��,4.1,4,52.7,0,0.95,8,��,7.1,28
2015/4/8,13:00:00,8,��,4.5,3.7,42.7,0,0.95,7,��쓌,7.7,9
2015/4/8,14:00:00,8,��,4.8,3.9,53.2,0,0.84,8,��,7.8,42
2015/4/8,15:00:00,8,��,5.5,3.4,42.8,0,0.69,8,��,8.4,55
2015/4/8,16:00:00,9,��쐼,4.3,3.6,55.6,0,0.51,8,��,9.5,23
2015/4/8,17:00:00,8,��,3.6,3.2,56.9,0,0.29,8,��,7.8,6
2015/4/8,18:00:00,8,��,2.5,2,68.5,0,0.07,8,��,5.4,2
2015/4/8,19:00:00,9,��쐼,0.9,0.4,82.8,0,0,8,��,3.9,3
2015/4/8,20:00:00,12,��,0.6,-1.6,90.5,0,0,16,�k,2.9,12
2015/4/8,21:00:00,14,�k��,0.8,-1.5,91.9,0,0,13,���k��,1.9,29
2015/4/8,22:00:00,10,�쐼,1.2,-1.6,88.1,0,0,10,�쐼,2.4,42
2015/4/8,23:00:00,13,���k��,1.6,-2.9,91,0,0,12,��,2.5,39
2015/4/8,0:00:00,14,�k��,2.5,-1,79.8,0,0,14,�k��,3.6,55
2015/4/9,1:00:00,14,�k��,3.3,-2.1,82.2,0,0,14,�k��,4.3,39
2015/4/9,2:00:00,13,���k��,2.6,-3.1,85.8,0,0,13,���k��,5,15
2015/4/9,3:00:00,13,���k��,2.6,-2.7,86.6,0,0,2,�k��,3.7,54
2015/4/9,4:00:00,13,���k��,3.1,-3.7,84.8,0,0,1,�k�k��,4.2,54
2015/4/9,5:00:00,12,��,2.2,-3.6,87.3,0,0.01,13,���k��,4.1,5
2015/4/9,6:00:00,12,��,2.8,-2.4,82.3,0,0.09,12,��,3.9,59
2015/4/9,7:00:00,12,��,1.8,-0.3,72.5,0,0.29,13,���k��,4.8,1
2015/4/9,8:00:00,14,�k��,0.4,2.5,52.1,0,0.5,14,�k��,3.3,49
2015/4/9,9:00:00,6,�쓌,2.1,4.1,37.6,0,0.7,10,�쐼,6.6,41
2015/4/9,10:00:00,7,��쓌,4,3.8,50.7,0,0.84,7,��쓌,6.6,17
2015/4/9,11:00:00,7,��쓌,4,4.4,53.9,0,0.94,7,��쓌,7.6,23
2015/4/9,12:00:00,7,��쓌,4.9,4.2,66.7,0,0.97,6,�쓌,7.6,51
2015/4/9,13:00:00,7,��쓌,4.4,4.8,65.4,0,0.94,7,��쓌,9,11
2015/4/9,14:00:00,7,��쓌,5.3,4.5,66.3,0,0.83,7,��쓌,8.4,46
2015/4/9,15:00:00,7,��쓌,5.9,4.4,71.7,0,0.68,7,��쓌,10,20
2015/4/9,16:00:00,7,��쓌,5.2,4,60.9,0,0.5,6,�쓌,10.6,8
2015/4/9,17:00:00,7,��쓌,4.9,3.2,68.2,0,0.28,8,��,9.2,51
2015/4/9,18:00:00,7,��쓌,4.1,2.5,65,0,0.08,7,��쓌,8.7,2
2015/4/9,19:00:00,7,��쓌,4.4,1.8,78.6,0,0,7,��쓌,7.7,56
2015/4/9,20:00:00,7,��쓌,4.5,1.8,71.9,0,0,7,��쓌,8.3,2
2015/4/9,21:00:00,7,��쓌,2.7,1.6,72.2,0,0,8,��,8.2,26
2015/4/9,22:00:00,7,��쓌,2.5,1.5,79.1,0,0,7,��쓌,5.5,9
2015/4/9,23:00:00,8,��,2.5,1.4,78.4,0,0,8,��,5.6,18
2015/4/9,0:00:00,10,�쐼,1.8,-1.8,84.1,0,0,8,��,4.3,17
2015/4/10,1:00:00,12,��,2.4,-2.5,90.9,0,0,9,��쐼,3.5,59
2015/4/10,2:00:00,12,��,1.1,-2.2,86.6,0,0,12,��,3.9,2
2015/4/10,3:00:00,12,��,1.6,-2.4,89.2,0,0,4,��,5.5,37
2015/4/10,4:00:00,13,���k��,2.2,-2.3,90.5,0,0,13,���k��,4.3,25
2015/4/10,5:00:00,13,���k��,1.1,-1.8,89.3,0,0,13,���k��,3,18
2015/4/10,6:00:00,14,�k��,0.6,-1.2,88.1,0,0.03,12,��,2.8,23
2015/4/10,7:00:00,14,�k��,0.7,-0.2,87.2,0,0.1,14,�k��,3.3,3
2015/4/10,8:00:00,12,��,0.8,1.4,81.3,0,0.22,12,��,2,43
2015/4/10,9:00:00,3,���k��,1.5,4,72.9,0,0.43,4,��,3,55
2015/4/10,10:00:00,5,���쓌,2.4,3.5,83,0,0.33,4,��,3.3,34
2015/4/10,11:00:00,5,���쓌,2.5,5,76.1,0,0.62,4,��,4.8,27
2015/4/10,12:00:00,5,���쓌,3,5.4,80.4,0,0.46,5,���쓌,4.8,26
2015/4/10,13:00:00,5,���쓌,2.8,5,80.7,0,0.43,4,��,5,1
2015/4/10,14:00:00,6,�쓌,2.5,4.8,83.1,0,0.43,6,�쓌,4.1,50
2015/4/10,15:00:00,5,���쓌,2.4,5.8,80.1,0,0.42,5,���쓌,4.2,43
2015/4/10,16:00:00,5,���쓌,2.4,4.4,87,0,0.22,6,�쓌,3.8,1
2015/4/10,17:00:00,4,��,2.2,4,89.6,0,0.09,4,��,3.7,49
2015/4/10,18:00:00,3,���k��,1.4,3.2,92.2,0,0.02,5,���쓌,2.8,13
2015/4/10,19:00:00,1,�k�k��,1.1,3.1,95.6,0,0,2,�k��,1.9,51
2015/4/10,20:00:00,2,�k��,1.2,3,96.1,0,0,2,�k��,2.5,42
2015/4/10,21:00:00,2,�k��,1.5,2.8,96.1,0,0,2,�k��,2.3,33
2015/4/10,22:00:00,2,�k��,1.8,2.7,96.9,0,0,15,�k�k��,7.6,36
2015/4/10,23:00:00,2,�k��,1.6,2.4,97.8,0,0,2,�k��,2.7,56
2015/4/10,0:00:00,2,�k��,1.6,2.6,96.5,0,0,2,�k��,3,43
2015/4/11,1:00:00,2,�k��,1.2,3,95.6,0,0,2,�k��,2.6,33
2015/4/11,2:00:00,1,�k�k��,1.3,2.9,96.2,0,0,1,�k�k��,2.7,38
2015/4/11,3:00:00,2,�k��,1.2,2.8,98.4,0,0,2,�k��,1.8,57
2015/4/11,4:00:00,1,�k�k��,0.9,2.7,99,0,0,1,�k�k��,1.9,48
2015/4/11,5:00:00,11,���쐼,0.8,2.5,99.7,0.5,0,12,��,2,36
2015/4/11,6:00:00,15,�k�k��,0.8,2.9,99.9,0.5,0.01,1,�k�k��,1.8,47
2015/4/11,7:00:00,14,�k��,1,3.2,99.6,0,0.03,16,�k,1.8,45
2015/4/11,8:00:00,14,�k��,0.9,3.6,99.3,0.5,0.06,14,�k��,3.2,18
2015/4/11,9:00:00,14,�k��,1.4,4,99,1,0.08,14,�k��,2.6,58
2015/4/11,10:00:00,2,�k��,1.4,4.8,98.2,0.5,0.09,3,���k��,2.5,54
2015/4/11,11:00:00,3,���k��,1.6,4.7,98.2,0.5,0.11,2,�k��,2.7,57
2015/4/11,12:00:00,3,���k��,2.9,4.8,98.4,1.5,0.11,4,��,4.5,52
2015/4/11,13:00:00,3,���k��,3.9,4.6,98.5,0,0.15,3,���k��,6.3,38
2015/4/11,14:00:00,3,���k��,3.3,4.6,97.7,0.5,0.16,3,���k��,5.5,38
2015/4/11,15:00:00,3,���k��,3.5,4.3,98.2,0.5,0.11,3,���k��,5.3,13
2015/4/11,16:00:00,2,�k��,2.5,4.1,98.7,0.5,0.07,3,���k��,4.9,2
2015/4/11,17:00:00,3,���k��,2.2,3.8,99,0.5,0.04,3,���k��,4,41
2015/4/11,18:00:00,3,���k��,2.3,3.5,99.3,0.5,0.02,4,��,3.7,43
2015/4/11,19:00:00,3,���k��,1.4,3.3,99.7,0,0,3,���k��,3.2,2
2015/4/11,20:00:00,3,���k��,1,3.4,99.8,0,0,3,���k��,2.5,3
2015/4/11,21:00:00,16,�É�,0,3.4,99.9,0,0,2,�k��,1.5,51
2015/4/11,22:00:00,3,���k��,0.9,3.2,100,0,0,1,�k�k��,1.8,12
2015/4/11,23:00:00,1,�k�k��,0.7,3.1,100,0,0,1,�k�k��,1.5,28
2015/4/11,0:00:00,5,���쓌,0.6,3,100,0,0,7,��쓌,1.5,40
2015/4/12,1:00:00,8,��,0.6,2.5,100,0,0,12,��,1.7,40
2015/4/12,2:00:00,9,��쐼,0.3,2.7,100,0,0,10,�쐼,5.4,56
2015/4/12,3:00:00,10,�쐼,1.3,2.5,100,0,0,9,��쐼,1.9,21
2015/4/12,4:00:00,12,��,1.1,1.9,100,0,0,1,�k�k��,1.8,40
2015/4/12,5:00:00,10,�쐼,1.3,0.3,100,0,0,10,�쐼,2.5,59
2015/4/12,6:00:00,12,��,1.5,0.5,100,0,0.06,10,�쐼,2.3,1
2015/4/12,7:00:00,13,���k��,1.6,2.3,100,0,0.25,12,��,2.5,49
2015/4/12,8:00:00,10,�쐼,0.9,5.5,100,0,0.46,11,���쐼,2.3,47
2015/4/12,9:00:00,13,���k��,0.4,7.1,85,0,0.52,8,��,3.5,39
2015/4/12,10:00:00,7,��쓌,3.7,7,82.2,0,0.73,7,��쓌,5.1,59
2015/4/12,11:00:00,7,��쓌,3.5,6,86.3,0,0.92,7,��쓌,5.9,19
2015/4/12,12:00:00,7,��쓌,2.5,6.5,86.9,0,0.95,6,�쓌,5.6,5
2015/4/12,13:00:00,5,���쓌,3,5.2,88.8,0,0.89,5,���쓌,4.5,48
2015/4/12,14:00:00,5,���쓌,2.7,5.4,88.2,0,0.76,5,���쓌,4.7,2
2015/4/12,15:00:00,2,�k��,2,7.5,78.5,0,0.67,5,���쓌,3.8,0
2015/4/12,16:00:00,3,���k��,1.3,8.4,69.5,0,0.48,2,�k��,3.6,0
2015/4/12,17:00:00,3,���k��,1.6,5.5,84.9,0,0.26,4,��,4.5,42
2015/4/12,18:00:00,6,�쓌,0.8,2.6,95.7,0,0.07,4,��,3.6,27
2015/4/12,19:00:00,11,���쐼,0.5,1.3,99.7,0,0,15,�k�k��,2.8,31
2015/4/12,20:00:00,7,��쓌,0.9,-0.5,97.9,0,0,13,���k��,2.7,17
2015/4/12,21:00:00,12,��,0.8,-0.2,99.7,0,0,7,��쓌,2.4,4
2015/4/12,22:00:00,11,���쐼,1.5,-1.2,99.4,0,0,11,���쐼,2,53
2015/4/12,23:00:00,3,���k��,1.2,-1.8,98.2,0,0,3,���k��,3,55
2015/4/12,0:00:00,2,�k��,1.3,0.9,100,0,0,1,�k�k��,3.2,41
2015/4/13,1:00:00,2,�k��,1.5,1,100,0,0,2,�k��,2.8,17
2015/4/13,2:00:00,14,�k��,2,0.4,100,0,0,13,���k��,2.8,57
2015/4/13,3:00:00,14,�k��,1.3,-0.1,100,0,0,13,���k��,2.8,0
2015/4/13,4:00:00,13,���k��,2,-0.7,100,0,0,13,���k��,3.2,59
2015/4/13,5:00:00,13,���k��,1.4,-0.5,100,0,0.01,14,�k��,2.8,43
2015/4/13,6:00:00,13,���k��,1.7,-0.3,100,0,0.05,13,���k��,2.8,37
2015/4/13,7:00:00,10,�쐼,0.5,0.7,100,0,0.13,12,��,2.8,20
2015/4/13,8:00:00,7,��쓌,1.9,3,100,0,0.32,6,�쓌,3.1,59
2015/4/13,9:00:00,6,�쓌,2.5,4.4,81.3,0,0.65,5,���쓌,4.9,39
2015/4/13,10:00:00,7,��쓌,3.8,4.5,70.7,0,0.82,7,��쓌,6.3,50
2015/4/13,11:00:00,7,��쓌,3.5,5,75.6,0,0.96,7,��쓌,6.9,29
2015/4/13,12:00:00,8,��,4.4,4.3,79.2,0,0.97,8,��,7.6,50
2015/4/13,13:00:00,7,��쓌,4.5,4.6,81.7,0,0.93,7,��쓌,8.5,57
2015/4/13,14:00:00,7,��쓌,4.4,4.8,77.9,0,0.83,7,��쓌,8.6,4
2015/4/13,15:00:00,7,��쓌,4.7,4.8,79.9,0,0.66,6,�쓌,8.4,27
2015/4/13,16:00:00,7,��쓌,4.9,5,83.5,0,0.43,8,��,9.8,24
2015/4/13,17:00:00,7,��쓌,3.4,4.3,86.1,0,0.21,7,��쓌,7.4,13
2015/4/13,18:00:00,8,��,4.6,3.2,92.7,0,0.07,7,��쓌,9.2,59
2015/4/13,19:00:00,8,��,3.7,3.2,95.7,0,0,7,��쓌,8.8,19
2015/4/13,20:00:00,9,��쐼,1.5,3.3,94.6,0,0,8,��,6.9,0
2015/4/13,21:00:00,9,��쐼,1.7,3.1,97.9,0,0,9,��쐼,4,55
2015/4/13,22:00:00,1,�k�k��,0.5,0.5,99.2,0,0,1,�k�k��,7.5,24
2015/4/13,23:00:00,14,�k��,2.4,1.8,97,0,0,1,�k�k��,6.1,27
2015/4/13,0:00:00,14,�k��,2.5,2,96.2,0,0,14,�k��,4.2,59
2015/4/14,1:00:00,13,���k��,0.5,1.9,96.2,0,0,15,�k�k��,4,0
2015/4/14,2:00:00,10,�쐼,0.5,-0.3,98.5,0,0,10,�쐼,2.7,56
2015/4/14,3:00:00,13,���k��,1.1,-0.6,99.9,0,0,14,�k��,2.8,34
2015/4/14,4:00:00,14,�k��,1.6,-0.1,100,0,0,14,�k��,2.5,32
2015/4/14,5:00:00,13,���k��,1.4,0.3,99.8,0,0.01,13,���k��,2.6,41
2015/4/14,6:00:00,14,�k��,1.2,1.1,97.3,0,0.03,14,�k��,3.5,35
2015/4/14,7:00:00,13,���k��,1.3,1.7,95.9,0,0.05,13,���k��,2.9,40
2015/4/14,8:00:00,13,���k��,1.1,2.6,94.3,0,0.07,14,�k��,3,21
2015/4/14,9:00:00,15,�k�k��,0.3,3.7,93.8,0,0.19,5,���쓌,2.1,48
2015/4/14,10:00:00,5,���쓌,1.2,6.8,87.5,0,0.38,2,�k��,3.2,43
2015/4/14,11:00:00,5,���쓌,2.3,5.7,90.5,0,0.33,5,���쓌,4.1,25
2015/4/14,12:00:00,4,��,2.6,6.7,87.7,0,0.32,4,��,4,57
2015/4/14,13:00:00,6,�쓌,2.5,6.9,90.6,0,0.41,5,���쓌,3.9,52
2015/4/14,14:00:00,5,���쓌,3.8,8.8,83.2,0,0.58,6,�쓌,6.2,48
2015/4/14,15:00:00,4,��,3.4,7.5,89.2,0,0.29,4,��,5.6,30
2015/4/14,16:00:00,5,���쓌,2,7.2,95.3,0,0.15,4,��,4.5,19
2015/4/14,17:00:00,3,���k��,1.5,6.7,97.7,0,0.07,6,�쓌,2.5,7
2015/4/14,18:00:00,4,��,1,6.1,99.2,0,0.02,3,���k��,2.5,5
2015/4/14,19:00:00,3,���k��,2.9,5.6,99.6,0,0,3,���k��,3.8,58
2015/4/14,20:00:00,2,�k��,1.4,5.7,99.9,0,0,3,���k��,4.1,7
2015/4/14,21:00:00,2,�k��,0.7,5.6,100,0,0,3,���k��,2.5,35
2015/4/14,22:00:00,14,�k��,0.8,5.7,100,0,0,15,�k�k��,2.2,43
2015/4/14,23:00:00,7,��쓌,0.6,5.2,100,0,0,1,�k�k��,1.9,16
2015/4/14,0:00:00,8,��,0.8,5.2,100,0,0,3,���k��,2.1,22
2015/4/15,1:00:00,14,�k��,0.6,5.2,100,0,0,2,�k��,2.6,22
2015/4/15,2:00:00,14,�k��,1.5,5.3,100,0,0,14,�k��,2.9,48
2015/4/15,3:00:00,14,�k��,2.1,4.9,100,0,0,14,�k��,3.2,55
2015/4/15,4:00:00,15,�k�k��,1.6,5.2,100,0,0,15,�k�k��,4.8,43
2015/4/15,5:00:00,16,�É�,0,4.5,100,0,0,12,��,3.1,14
2015/4/15,6:00:00,15,�k�k��,0.6,5.2,100,0,0.01,4,��,2.1,0
2015/4/15,7:00:00,3,���k��,0.9,5.8,100,0,0.03,14,�k��,2.1,12
2015/4/15,8:00:00,3,���k��,1.6,6,100,1,0.05,2,�k��,2.4,59
2015/4/15,9:00:00,3,���k��,3.3,6,100,1,0.06,3,���k��,5,55
2015/4/15,10:00:00,3,���k��,2.5,6.6,100,1.5,0.06,3,���k��,5.6,9
2015/4/15,11:00:00,2,�k��,3,6.8,100,2.5,0.08,3,���k��,6.1,31
2015/4/15,12:00:00,2,�k��,3.2,7.9,100,3,0.08,2,�k��,7.4,10
2015/4/15,13:00:00,3,���k��,6.1,8.1,100,3.5,0.08,2,�k��,9.8,56
2015/4/15,14:00:00,2,�k��,4.8,8,99.9,5.5,0.06,3,���k��,10.4,1
2015/4/15,15:00:00,1,�k�k��,4.2,8.3,97.9,5.5,0.07,3,���k��,9.2,10
2015/4/15,16:00:00,1,�k�k��,6.1,7.7,96.8,7,0.03,1,�k�k��,9.1,59
2015/4/15,17:00:00,16,�k,3.7,7.1,95.6,5,0.02,1,�k�k��,10.1,23
2015/4/15,18:00:00,14,�k��,2.4,6.8,97.6,7.5,0.01,15,�k�k��,7.8,1
2015/4/15,19:00:00,16,�k,4.1,6.3,97.6,5.5,0,16,�k,7.4,51
2015/4/15,20:00:00,14,�k��,4.9,5,97,3,0,14,�k��,9.3,59
2015/4/15,21:00:00,14,�k��,5.7,4.4,96.3,0.5,0,14,�k��,11.5,14
2015/4/15,22:00:00,14,�k��,6.7,4.6,94.2,0,0,14,�k��,11.4,54
2015/4/15,23:00:00,14,�k��,4.9,4.4,93.6,0,0,14,�k��,10.6,20
2015/4/15,0:00:00,14,�k��,4.1,4.5,91.8,0,0,14,�k��,9.3,26
2015/4/16,1:00:00,14,�k��,4.6,4,91,0,0,14,�k��,8.7,56
2015/4/16,2:00:00,15,�k�k��,2.6,3.7,89.5,0,0,15,�k�k��,7.2,0
2015/4/16,3:00:00,14,�k��,2.3,3.7,88.3,0,0,16,�k,5.9,8
2015/4/16,4:00:00,14,�k��,1.4,3.8,85.9,0,0,14,�k��,4.8,11
2015/4/16,5:00:00,13,���k��,1.1,3.5,87.3,0,0,13,���k��,2.5,20
2015/4/16,6:00:00,16,�k,1,3.4,89.6,0,0.02,15,�k�k��,2.6,41
2015/4/16,7:00:00,14,�k��,2.1,4,88.7,0,0.09,14,�k��,3,53
2015/4/16,8:00:00,14,�k��,1.2,4.6,88.1,0,0.18,14,�k��,3,1
2015/4/16,9:00:00,12,��,2,5.4,84.4,0,0.26,12,��,3.4,46
2015/4/16,10:00:00,4,��,0.9,6,80.8,0,0.3,11,���쐼,3.1,16
2015/4/16,11:00:00,8,��,1,6.1,85.2,0,0.16,5,���쓌,4.1,6
2015/4/16,12:00:00,7,��쓌,1.9,5.9,85,0,0.24,8,��,3.2,43
2015/4/16,13:00:00,7,��쓌,2.5,5.7,79,0,0.32,7,��쓌,3.8,47
2015/4/16,14:00:00,8,��,2.6,5.5,85.2,0,0.16,7,��쓌,4.9,24
2015/4/16,15:00:00,7,��쓌,2.7,5.9,80.1,0,0.28,9,��쐼,5.9,40
2015/4/16,16:00:00,8,��,2.4,5,87.2,0,0.18,7,��쓌,4.2,33
2015/4/16,17:00:00,7,��쓌,1,4.4,91.3,0,0.05,8,��,4.3,7
2015/4/16,18:00:00,9,��쐼,1.6,4.1,94.1,0,0.01,9,��쐼,3.9,44
2015/4/16,19:00:00,4,��,1.4,3.8,95.4,0,0,9,��쐼,2.9,1
2015/4/16,20:00:00,6,�쓌,0.5,3.7,95.1,0,0,8,��,1.7,34
2015/4/16,21:00:00,2,�k��,0.3,3.5,97,0,0,5,���쓌,3.3,7
2015/4/16,22:00:00,7,�É�,0.1,3.2,98.5,0,0,7,��쓌,1.7,43
2015/4/16,23:00:00,2,�k��,0.6,3.2,99.2,0,0,1,�k�k��,3.4,9
2015/4/16,0:00:00,12,�É�,0.2,3.1,99.5,0,0,13,���k��,2.5,56
2015/4/17,1:00:00,5,���쓌,1.3,3,100,0,0,9,��쐼,3.4,2
2015/4/17,2:00:00,5,���쓌,1.4,2.9,96.8,0,0,5,���쓌,2.5,59
2015/4/17,3:00:00,5,���쓌,3,2.4,94.1,0,0,5,���쓌,4.9,42
2015/4/17,4:00:00,5,���쓌,2,1.4,98,0.5,0,5,���쓌,3.6,0
2015/4/17,5:00:00,3,���k��,0.9,1.7,98.7,0,0.01,3,���k��,2.6,16
2015/4/17,6:00:00,3,���k��,1,2.4,96.2,0,0.03,5,���쓌,2.5,28
2015/4/17,7:00:00,5,���쓌,0.4,2.5,96,0,0.03,4,��,1.4,14
2015/4/17,8:00:00,5,���쓌,1.7,2.5,94.6,0,0.04,6,�쓌,4.3,21
2015/4/17,9:00:00,4,��,2.8,2.7,92.8,0,0.09,4,��,4.6,51
2015/4/17,10:00:00,4,��,3.7,2.6,94.2,0,0.14,5,���쓌,5.2,32
2015/4/17,11:00:00,4,��,3.7,2.6,94.4,0,0.17,4,��,5,58
2015/4/17,12:00:00,4,��,3.1,3.1,91.7,0,0.26,4,��,4.9,39
2015/4/17,13:00:00,4,��,2.6,3.4,90.6,0,0.26,3,���k��,4.7,0
2015/4/17,14:00:00,4,��,3.1,2.9,90.5,0,0.24,3,���k��,4.9,28
2015/4/17,15:00:00,4,��,2.8,2.6,92.8,0,0.1,5,���쓌,4.5,56
2015/4/17,16:00:00,3,���k��,1.8,2.5,94.2,0,0.07,4,��,4.3,25
2015/4/17,17:00:00,4,��,1.8,2.4,95.8,0,0.04,4,��,3.3,55
2015/4/17,18:00:00,2,�k��,1.2,2.2,96.6,0,0.02,4,��,2.7,11
2015/4/17,19:00:00,15,�k�k��,0.7,2.2,97.7,0,0,3,���k��,1.6,2
2015/4/17,20:00:00,1,�k�k��,1.3,1.8,97.6,0.5,0,1,�k�k��,2.5,47
2015/4/17,21:00:00,16,�k,0.8,1.5,98.3,0,0,1,�k�k��,2.5,7
2015/4/17,22:00:00,14,�k��,1.3,1.3,99.1,0.5,0,12,��,2.2,8
2015/4/17,23:00:00,14,�k��,1.7,1.3,98.9,0,0,14,�k��,2.8,46
2015/4/17,0:00:00,13,���k��,2,1.5,98.9,0,0,13,���k��,3.5,53